Regional Weather Roundup
Issued by NWS Upton, NY

Current Version | Previous Version | Graphics & Text | Print | Product List | Glossary Off
Versions: 1 2 3 4 5 6 7 8 9 10 11 12 13 14 15 16 17 18 19 20 21 22 23 24 25 26 27 28 29 30 31 32 33 34 35 36 37 38 39 40 41 42 43 44 45 46 47 48 49 50

000
ASUS41 KOKX 200008
RWROKX

Regional Weather Roundup
National Weather Service New York NY
700 PM EST FRI JAN 19 2018

Note: "FAIR" indicates few or no clouds below 12,000 feet with no
significant weather and/or obstructions to visibility.

NYZ071-072-176-178-NJZ106-104-200100-
New York City Metro Area

CITY           SKY/WX    TMP DP  RH WIND       PRES   REMARKS
Central Park   FAIR      38  18  44 W7        30.00S WCI  33
Bronx Bot Gard   N/A     37  18  44 W12       29.99F WCI  30
Bronx Lehman C   N/A     37  19  48 SW6         N/A  WCI  33
LaGuardia Arpt MOCLDY    38  17  42 SW9       29.98S WCI  31
Queens College   N/A     37  19  48 W9          N/A  WCI  31
Kennedy Intl   FAIR      36  20  52 W8        30.01R WCI  30
Breezy Point     N/A     36 N/A N/A SW5         N/A  WCI  32
Brooklyn Coll    N/A     37  21  52 SW6         N/A  WCI  33
Staten Island    N/A     36  19  51 SW5         N/A  WCI  32
Newark/Liberty MOCLDY    35  18  49 SW6       29.99S WCI  30
Teterboro      FAIR      33  19  56 VRB6      29.98S WCI  28
$$

NYZ177-179-078>081-200100-
Long Island New York

CITY           SKY/WX    TMP DP  RH WIND       PRES   REMARKS
Jones Beach      N/A     36 N/A N/A W7          N/A  WCI  30
Wantagh          N/A     34  21  60 SW5         N/A  WCI  30
Matinecock Pt    N/A     36 N/A N/A SW8         N/A  WCI  29
Farmingdale    FAIR      31  18  58 SW3       29.99S
MacArthur/ISP  FAIR      32  18  56 SE5       29.98S WCI  27
Shirley        FAIR      27  19  72 CALM      30.00S
Mt Sinai Harb    N/A    N/A N/A N/A S2          N/A
Westhampton    FAIR      24  15  68 CALM      30.00F
East Hampton   FAIR      24  18  77 CALM      29.99S
Southold         N/A     30  19  64 SW3         N/A
Montauk          N/A     34  21  59 W6        29.99S WCI  29
$$

NYZ052-065-067-200100-
Hudson Valley

CITY           SKY/WX    TMP DP  RH WIND       PRES   REMARKS
White Plains   FAIR      29  17  61 CALM      29.95S
Larchmont Harb   N/A     32 N/A N/A SW1         N/A
Croton On Huds   N/A    N/A N/A N/A CALM        N/A
Somers           N/A     30  18  59 S5          N/A  WCI  25
Brewster         N/A     27  19  74 CALM        N/A
Newburgh       CLEAR     21  16  79 CALM      29.95S
Montgomery     FAIR      19  13  77 CALM      29.93S
Otisville        N/A     25  19  80 CALM        N/A
Warwick          N/A     25  18  74 NE1         N/A
Suffern          N/A     32  19  59 S2          N/A
Poughkeepsie   FAIR      21  16  81 SE3       29.95R
Albany         MOCLDY    20  14  77 CALM      29.94S
$$

NJZ001-105-106-008-010-013-015-019>022-104-200100-
New Jersey

CITY           SKY/WX    TMP DP  RH WIND       PRES   REMARKS
Newark/Liberty MOCLDY    35  18  49 SW6       29.99S WCI  30
Teterboro      FAIR      33  19  56 VRB6      29.98S WCI  28
Caldwell       FAIR      33  17  51 VRB3      29.98S
Somerville     FAIR      27  21  78 CALM      29.98S
Linden         FAIR      36  17  47 CALM      30.00S
Perth Amboy      N/A     37 N/A N/A W6          N/A  WCI  33
Sussex         FAIR      26  19  74 SW5       29.94F WCI  20
Andover          N/A     23  18  81 CALM      29.95F
Trenton        FAIR      37  18  46 SW5       29.99F WCI  33
Millville      FAIR      26  21  81 CALM      30.04R
Atlantic City  FAIR      37  18  46 SW6       30.04R WCI  32
Wrightstown    FAIR      33  20  58 SW7       29.99S WCI  27
Toms River     FAIR      27  20  75 SW3       30.03S
Belmar         FAIR      36  18  48 SW5       30.01  WCI  32
$$

PAZ047>061-062-071-200100-
Eastern Pennsylvania

CITY           SKY/WX    TMP DP  RH WIND       PRES   REMARKS
Philadelphia   FAIR      39  20  46 SW6       30.03R WCI  35
Allentown      FAIR      32  18  56 W5        29.98S WCI  27
Scranton       FAIR      30  19  63 S3        29.92S
$$

CTZ002-004>006-009-010-012-RIZ004-006-007-MAZ004-011-015-200100-
Southern New England

 In CT

CITY           SKY/WX    TMP DP  RH WIND       PRES   REMARKS
Bradley Intl   MOCLDY    30  19  63 SW5       29.95R WCI  25
Hartford       FAIR      31  18  58 SW5       29.97R WCI  26
Danbury        FAIR      25  19  78 CALM      29.97R
Wtrbury/Oxford FAIR      23  15  71 S3        29.95R
Norwalk Harbor   N/A     32 N/A N/A SW6         N/A  WCI  26
Bridgeport     FAIR      32  24  72 SW5       29.99R WCI  27
Meriden        FAIR      24  18  77 CALM      29.98R
New Haven      FAIR      32  23  69 SW5       29.98S WCI  27
Chester        FAIR      28  19  69 SW6       29.96R WCI  22
Groton         FAIR      32  22  66 W8        29.98S WCI  25
Willimantic    FAIR      27  19  72 SW3       29.96S

 In RI

CITY           SKY/WX    TMP DP  RH WIND       PRES   REMARKS
Providence     MOCLDY    30  19  63 SW5       29.96S WCI  25
Block Island   NOT AVBL
Westerly       FAIR      32  23  69 W5        29.98S WCI  27

In MA

CITY           SKY/WX    TMP DP  RH WIND       PRES   REMARKS
Boston         CLOUDY    33  21  61 CALM      29.93S
Worcester      CLOUDY    27  17  66 SW7       29.89S WCI  19
Westfield      FAIR      30  21  69 W6        29.94R WCI  24
Provincetown   CLOUDY    30  23  75 S5        29.94F WCI  25
Nantucket      FAIR      31  25  78 W10       29.96F WCI  22
$$

ANZ330-335-338-340-345-350-353-355-200100-
Coastal Marine Observations


STATION/POSITION TIME  SKY/WX   TEMP    WIND        PRES    VSBY  WAVE
                                AIR SEA DIR/SP/G                  HT/PER
                 (UTC)          (F)     (DEG/KT/KT) (MB)    (MI)  (FT/S)
NY Harb Entrance 2250            40 40  250/  8/ 10 1015.6          2/ 7
20 S Fire Island 2250            40 42  270/ 10/ 14 1016.2          3/ 4
15 E Barnegat Li 2330               43                N/A           2/11
Hudson Canyon    2250            45 48  260/ 17/ 21 1016.1          5/ 5
Kings Point      2324            37 32  260/  8/ 11 1016.3
Execution Rocks  NOT AVBL
Western LI Sound NOT AVBL
Central LI Sound 2330            35     240/ 10/ 12   N/A           2
Robbins Reef     2330            38     220/  7/  8 1016.1
$$


>>>>>>>>>>>>>>>>>>>>>>>>>>>> KEY <<<<<<<<<<<<<<<<<<<<<<<<<<<
>                                                          <
>     SKY/WX - Sky Condition/Present Weather               <
>     TMP    - Temperature in Fahrenheit                   <
>     DP     - Dew Point in Fahrenheit                     <
>     RH     - Relative Humidity in Percent                <
>     WIND   - Direction (from) and Speed in MPH           <
>     PRES   - Mean Sea Level Pressure (inches of Hg)      <
>     WCI    - Wind Chill Index                            <
>     VSB    - Visibility in Miles                         <
>     HX     - Heat Index                                  <
>     TC     - Temperature in Celsius                      <
>     VRB    - Varibale Wind Direction                     <
>                                                          <
>>>>>>>>>>>>>>>>>>>>>>>>>>>> KEY <<<<<<<<<<<<<<<<<<<<<<<<<<<



USA.gov is the U.S. government's official web portal to all federal, state and local government web resources and services.